Location: Banios
(43.0451°N, 0.2335°E)
Time: 12:14:12
(UTC+00:00)

A-11 Canister half - Pass Details

Date: 13 May 2021
Orbit: 1513 x 1686 km, 47.2° (Epoch: 14 June)

Event Time Altitude Azimuth Distance (km) Brightness Sun altitude
Rises 15:24:44 0° 246° (WSW) 4,672 12.4 39.8°
Reaches altitude 10° 15:27:46 10° 246° (WSW) 3,680 12.2 39.3°
Maximum altitude 15:37:03 89° 335° (NNW) 1,518 9.7 37.6°
Drops below altitude 10° 15:46:23 10° 69° (ENE) 3,698 10.6 35.9°
Sets 15:49:26 0° 69° (ENE) 4,696 11.1 35.4°
